Location: Allen Fire Department Station 4
(33.1073°N, 96.6988°W)
Time: 09:06:00
(UTC+00:00)

Cosmos 1763 Rocket - Pass Details

Date: 06 July 2022
Orbit: 732 x 780 km, 74.0° (Epoch: 09 August)

Event Time Altitude Azimuth Distance (km) Brightness Sun altitude
Exits shadow 06:41:40 33° 32° (NNE) 1,269 5.0 -34.2°
Drops below altitude 10° 06:44:34 10° 23° (NNE) 2,316 6.7 -34.1°
Sets 06:46:58 0° 20° (NNE) 3,252 7.7 -34.1°
